E23XBQ-1 Weather Reports


Display with metric or nautical units.
time (UTC)temp
F
wind
direction
speed
MPH
gust
MPH
rain 1hr
in
rain 24hr
in
rain mn
in
humidity
%
barometer
mb
20260505060418 96 0 0.0 0.0 0.00 0.00 0.00 48 972.0
20260505055353 96 0 0.0 0.0 0.00 0.00 0.00 48 973.0
20260505054329 95 0 0.0 0.0 0.00 0.00 0.00 49 973.0
20260505053304 96 0 0.0 0.0 0.00 0.00 0.00 49 973.0
20260505052240 94 0 0.0 0.0 0.00 0.00 0.00 51 973.0
20260505051214 95 0 0.0 0.0 0.00 0.00 0.00 50 974.0
20260505050149 94 0 0.0 0.0 0.00 0.00 0.00 53 974.0
20260505040943 94 0 0.0 0.0 0.00 0.00 0.00 52 975.0
20260505035919 94 0 0.0 0.0 0.00 0.00 0.00 55 975.0
20260505034853 93 0 0.0 0.0 0.00 0.00 0.00 55 975.0
20260505033829 93 0 0.0 0.0 0.00 0.00 0.00 57 975.0
20260505032805 92 0 0.0 0.0 0.00 0.00 0.00 58 975.0
20260505031740 90 0 0.0 0.0 0.00 0.00 0.00 59 975.0
20260505030716 90 0 0.0 0.0 0.00 0.00 0.00 59 975.0
20260505025651 91 0 0.0 0.0 0.00 0.00 0.00 60 976.0
20260505024626 90 0 0.0 0.0 0.00 0.00 0.00 64 976.0
20260505023602 90 0 0.0 0.0 0.00 0.00 0.00 62 976.0
20260505022537 89 0 0.0 0.0 0.00 0.00 0.00 67 976.0
20260505021513 88 0 0.0 0.0 0.00 0.00 0.00 75 975.0
20260505020448 86 0 0.0 0.0 0.00 0.00 0.00 79 975.0
20260505015423 85 0 0.0 0.0 0.00 0.00 0.00 85 975.0
20260505014359 85 0 0.0 0.0 0.00 0.00 0.00 84 975.0
20260505013336 84 0 0.0 0.0 0.00 0.00 0.00 89 975.0
20260505012310 81 0 0.0 0.0 0.00 0.00 0.00 99 975.0
20260505011245 80 0 0.0 0.0 0.00 0.00 0.00 99 976.0
20260505010221 80 0 0.0 0.0 0.00 0.00 0.00 99 975.0
20260505005156 79 0 0.0 0.0 0.00 0.00 0.00 99 975.0
20260505004132 79 0 0.0 0.0 0.00 0.00 0.00 99 975.0
20260505003106 79 0 0.0 0.0 0.00 0.00 0.00 99 975.0
20260505002042 78 0 0.0 0.0 0.00 0.00 0.00 99 975.0
20260505001008 78 0 0.0 0.0 0.00 0.00 0.00 99 975.0
20260504235945 77 0 0.0 0.0 0.00 0.00 0.00 99
20260504235943 77 0 0.0 0.0 0.00 0.00 0.00 99 975.0
20260504234918 77 0 0.0 0.0 0.00 0.00 0.00 99 975.0
20260504233853 76 0 0.0 0.0 0.00 0.00 0.00 99 974.0
20260504232828 76 0 0.0 0.0 0.00 0.00 0.00 99 974.0
20260504231804 76 0 0.0 0.0 0.00 0.00 0.00 99 974.0
20260504230739 76 0 0.0 0.0 0.00 0.00 0.00 99 974.0
20260504225714 76 0 0.0 0.0 0.00 0.00 0.00 99 974.0
20260504224653 75 0 0.0 0.0 0.00 0.00 0.00 99 974.0
20260504224650 75 0 0.0 0.0 0.00 0.00 0.00 99 974.0
20260504223625 76 0 0.0 0.0 0.00 0.00 0.00 99 974.0
20260504222544 76 0 0.0 0.0 0.00 0.00 0.00 99 973.0
20260504221517 76 0 0.0 0.0 0.00 0.00 0.00 99 973.0
20260504220453 75 0 0.0 0.0 0.00 0.00 0.00 99 973.0
20260504215428 75 0 0.0 0.0 0.00 0.00 0.00 99 973.0
20260504214403 75 0 0.0 0.0 0.00 0.00 0.00 99 973.0
20260504213338 76 0 0.0 0.0 0.00 0.00 0.00 99 973.0
20260504212314 76 0 0.0 0.0 0.00 0.00 0.00 99 973.0
20260504211258 76 0 0.0 0.0 0.00 0.00 0.00 99 973.0
20260504211250 76 0 0.0 0.0 0.00 0.00 0.00 99 973.0
20260504210224 76 0 0.0 0.0 0.00 0.00 0.00 99 973.0
20260504205159 76 0 0.0 0.0 0.00 0.00 0.00 99 973.0
20260504204135 76 0 0.0 0.0 0.00 0.00 0.00 99 973.0
20260504203109 77 0 0.0 0.0 0.00 0.00 0.00 99 973.0
20260504202044 77 0 0.0 0.0 0.00 0.00 0.00 99 974.0
20260504201020 77 0 0.0 0.0 0.00 0.00 0.00 99 974.0
20260504195955 77 0 0.0 0.0 0.00 0.00 0.00 99 974.0
20260504194930 77 0 0.0 0.0 0.00 0.00 0.00 99 974.0
20260504193906 77 0 0.0 0.0 0.00 0.00 0.00 99 974.0
20260504192841 77 0 0.0 0.0 0.00 0.00 0.00 99 974.0
20260504191847 77 0 0.0 0.0 0.00 0.00 0.00 99 974.0
20260504191816 77 0 0.0 0.0 0.00 0.00 0.00 99 974.0
20260504190752 78 0 0.0 0.0 0.00 0.00 0.00 99 974.0
20260504185728 78 0 0.0 0.0 0.00 0.00 0.00 99 974.0
20260504184704 78 0 0.0 0.0 0.00 0.00 0.00 99 974.0
20260504183639 77 0 0.0 0.0 0.00 0.00 0.00 99 974.0
20260504182614 78 0 0.0 0.0 0.00 0.00 0.00 99 974.0
20260504181550 78 0 0.0 0.0 0.00 0.00 0.00 99 974.0
20260504180525 78 0 0.0 0.0 0.00 0.00 0.00 99 975.0
20260504175500 77 0 0.0 0.0 0.00 0.00 0.00 99 974.0
20260504174435 78 0 0.0 0.0 0.00 0.00 0.00 99 974.0
20260504173411 78 0 0.0 0.0 0.00 0.00 0.00 99 974.0
20260504172346 77 0 0.0 0.0 0.00 0.00 0.00 99 974.0
20260504171321 77 0 0.0 0.0 0.00 0.00 0.00 99 974.0
20260504170256 78 0 0.0 0.0 0.00 0.00 0.00 99 974.0
20260504150825 78 0 0.0 0.0 0.00 0.00 0.00 99 972.0
20260504140557 78 0 0.0 0.0 0.00 0.00 0.00 98 972.0
20260504130307 79 0 0.0 0.0 0.00 0.00 0.00 83 971.0
20260504100606 97 0 0.0 0.0 0.00 0.00 0.00 36 968.0
20260504081130 101 0 0.0 0.0 0.00 0.00 0.00 29 969.0
20260504080106 105 0 0.0 0.0 0.00 0.00 0.00 30 969.0